Showing default

SUPERVIEW NEO-1 03, 63125

Orbit data source: Space-Track

SUPERVIEW NEO-1 03, 63125 is a payload satellite owned by Siwei (CN) in SSO that was launched on Thu, 27 Feb 2025 UTC via a CHANG ZHENG 2C launch vehicle from the Jiuquan Satellite Launch Center, China (JSC). Payload-class satellites include a variety of spacecraft equipped with specific instruments for various scientific and technological missions. These include communications satellites like Starlink; space stations such as the ISS; scientific satellites like the Hubble; Earth observation satellites from companies like Planet Labs, Umbra, and HawkEye 360; GPS; miniature CubeSats for education and research; and military/defense satellites.

Loading next visibility...
Identifier
63125, 2025-040A
Orbit
SSO
Country
Flag of CNCN / PRC
Related business
Manufacturer
SAST
Mission
Operational Commercial Imaging
Bus & Motor
SIWEI, Unknown motor
Mass
540 kg wet, ~500 kg dry
Launch date (UTC)
2025-02-27 (10 months ago)
Launch vehicle
CHANG ZHENG 2C
Launch site
Jiuquan Satellite Launch Center, China (JSC)
Object type
Payload
Rocket body
Debris
Shape & HBR
Box, 4.7 m
Radar Cross Section
0.375 m², Large (>1 m²)

Expand to show TLE details & history
Last TLE update: 6 hours ago

TLE from 6 hours ago
0 SUPERVIEW NEO-1 03
1 63125U 25040A   25347.02932172  .00008211  00000-0  36611-3 0  9997
2 63125  97.3369 100.9966 0001596 105.3474 254.7938 15.21659713 43872
Epoch: 2025-12-13T00:42Z
TLE epoch observation values (Epoch: 2025-12-13T00:42:13.396Z)
Latitude
-0.0001°
Longitude
8.47834°
Altitude
504.217 km
Speed
7.612 km/s
True Right ascension
06h 43m 59s
True Declination
0° 00' 00"
Sunlit
Object was in full shadow at epoch
Visualization orbit readout
Latitude
Unknown
Longitude
Unknown
Altitude
Unknown
Speed
Unknown
Apparent Right ascension
Unknown
Apparent Declination
Unknown
Sunlit
N/A
Visualization observer readout
Local Sidereal Time
05:23:39
Azimuth
Unknown
Elevation
Unknown
Doppler factor
Unknown
Orbital elements
Apogee altitude
498.892 km
Perigee altitude
496.697 km
Semi-major axis
6,875.932 km
Eccentricity
0.00016
Inclination
97.3369°
RAAN
100.9966°
Arg. of periapsis
105.3474°
True anomaly
254.77615°
Mean anomaly
254.7938°
Eccentric anomaly
254.78498°
Mean motion
3.80668 °/min
Orbital period
94.57 mins
BSTAR
0.00036611
Loading maneuver chart data...
Computing Atmospheric mass density...
Loading historical data...
Loading historical data...
Loading historical data...
Loading historical data...
Loading historical data...
Loading historical data...
Loading historical data...
Other satellites on launch #40 in the year 2025 (2025-02-27 UTC)

Documentation

Showing up to 5 results
|